[Date Prev][Date Next][Thread Prev][Thread Next] - [Date Index][Thread Index][Author Index]
2 Line ISS Keps 4-16
- Subject: [sarex] 2 Line ISS Keps 4-16
- From: "Dave Larsen PhD" <doc@xxxxxxxxxxx>
- Date: Fri, 16 Apr 2004 02:37:47 -0700
ISS
1 25544U 98067A 04107.21935185 .00017218 00000-0 15473-3 0 5815
2 25544 51.6284 281.5785 0010973 37.0083 309.4260 15.68301856308586
----
Via the sarex mailing list at AMSAT.ORG courtesy of AMSAT-NA.
To unsubscribe, send "unsubscribe sarex" to Majordomo@amsat.org
AMSAT Home